TimeMST,TemperatureF,Dew PointF,Humidity,Sea Level PressureIn,VisibilityMPH,Wind Direction,Wind SpeedMPH,Gust SpeedMPH,PrecipitationIn,Events,Conditions,WindDirDegrees,DateUTC
12:15 AM,28.2,24.1,84,30.28,10.0,West,5.8,-,N/A,,Clear,270,2012-11-14 07:15:00
12:35 AM,27.9,23.7,84,30.26,10.0,West,5.8,-,N/A,,Clear,260,2012-11-14 07:35:00
12:55 AM,26.6,23.2,87,30.26,10.0,West,6.9,-,N/A,,Clear,270,2012-11-14 07:55:00
1:15 AM,25.7,23.0,89,30.26,10.0,West,6.9,-,N/A,,Clear,270,2012-11-14 08:15:00
1:35 AM,26.6,23.5,88,30.26,10.0,West,6.9,-,N/A,,Clear,270,2012-11-14 08:35:00
1:55 AM,26.6,23.7,89,30.26,10.0,WSW,5.8,-,N/A,,Clear,250,2012-11-14 08:55:00
2:15 AM,28.2,24.6,86,30.26,10.0,West,5.8,-,N/A,,Clear,270,2012-11-14 09:15:00
2:35 AM,27.3,23.7,86,30.24,10.0,West,4.6,-,N/A,,Clear,280,2012-11-14 09:35:00
2:55 AM,27.1,23.7,87,30.24,10.0,West,3.5,-,N/A,,Clear,280,2012-11-14 09:55:00
3:15 AM,27.5,24.1,87,30.23,10.0,Calm,Calm,-,N/A,,Clear,0,2012-11-14 10:15:00
3:35 AM,28.4,24.1,84,30.22,10.0,Calm,Calm,-,N/A,,Clear,0,2012-11-14 10:35:00
3:55 AM,23.0,21.0,92,30.22,10.0,Calm,Calm,-,N/A,,Clear,0,2012-11-14 10:55:00
4:15 AM,25.7,23.7,92,30.22,10.0,Calm,Calm,-,N/A,,Clear,0,2012-11-14 11:15:00
4:35 AM,24.8,22.6,91,30.22,10.0,Calm,Calm,-,N/A,,Clear,0,2012-11-14 11:35:00
4:55 AM,24.1,22.1,92,30.22,10.0,NE,4.6,-,N/A,,Clear,50,2012-11-14 11:55:00
5:15 AM,24.6,22.5,91,30.22,10.0,North,4.6,-,N/A,,Clear,10,2012-11-14 12:15:00
5:35 AM,25.9,23.0,89,30.22,10.0,Calm,Calm,-,N/A,,Clear,0,2012-11-14 12:35:00
5:55 AM,26.2,22.6,86,30.22,10.0,NE,3.5,-,N/A,,Clear,40,2012-11-14 12:55:00
6:15 AM,24.3,21.2,88,30.22,10.0,NE,3.5,-,N/A,,Clear,40,2012-11-14 13:15:00
6:35 AM,24.6,22.8,93,30.22,10.0,Calm,Calm,-,N/A,,Clear,0,2012-11-14 13:35:00
6:55 AM,28.2,25.0,88,30.22,10.0,NNE,5.8,-,N/A,,Clear,20,2012-11-14 13:55:00
7:15 AM,30.2,25.9,84,30.22,10.0,ENE,3.5,-,N/A,,Clear,70,2012-11-14 14:15:00
7:35 AM,29.7,25.9,86,30.23,10.0,Calm,Calm,-,N/A,,Clear,0,2012-11-14 14:35:00
7:55 AM,30.6,27.1,87,30.24,10.0,Calm,Calm,-,N/A,,Clear,0,2012-11-14 14:55:00
8:15 AM,31.5,27.7,86,30.24,10.0,Calm,Calm,-,N/A,,Clear,0,2012-11-14 15:15:00
8:35 AM,33.4,27.5,79,30.24,10.0,SSE,3.5,-,N/A,,Clear,160,2012-11-14 15:35:00
8:55 AM,35.1,28.8,78,30.24,10.0,South,4.6,-,N/A,,Clear,190,2012-11-14 15:55:00
9:15 AM,36.7,30.0,77,30.24,10.0,SW,5.8,-,N/A,,Clear,220,2012-11-14 16:15:00
9:35 AM,35.2,28.2,76,30.23,10.0,SW,6.9,-,N/A,,Clear,220,2012-11-14 16:35:00
9:55 AM,34.0,28.4,80,30.22,10.0,SW,6.9,-,N/A,,Clear,230,2012-11-14 16:55:00
10:15 AM,36.1,28.6,74,30.22,10.0,West,4.6,-,N/A,,Clear,280,2012-11-14 17:15:00
10:35 AM,36.7,28.2,71,30.22,10.0,WSW,5.8,-,N/A,,Clear,240,2012-11-14 17:35:00
10:55 AM,39.4,29.1,67,30.20,10.0,SW,6.9,-,N/A,,Clear,220,2012-11-14 17:55:00
11:15 AM,39.9,29.8,67,30.18,10.0,SW,8.1,-,N/A,,Clear,220,2012-11-14 18:15:00
11:35 AM,41.4,29.5,63,30.17,10.0,SW,8.1,-,N/A,,Clear,220,2012-11-14 18:35:00
11:55 AM,41.2,28.6,61,30.17,10.0,SW,6.9,-,N/A,,Scattered Clouds,220,2012-11-14 18:55:00
12:15 PM,39.6,28.9,66,30.16,10.0,SW,4.6,-,N/A,,Scattered Clouds,230,2012-11-14 19:15:00
12:35 PM,39.2,29.7,69,30.14,10.0,SW,4.6,-,N/A,,Clear,220,2012-11-14 19:35:00
12:55 PM,42.3,29.7,61,30.13,10.0,West,3.5,-,N/A,,Clear,280,2012-11-14 19:55:00
1:15 PM,45.7,29.1,52,30.13,10.0,SW,4.6,-,N/A,,Clear,230,2012-11-14 20:15:00
1:35 PM,46.0,28.8,51,30.12,10.0,West,4.6,-,N/A,,Clear,280,2012-11-14 20:35:00
1:55 PM,47.5,28.4,48,30.11,10.0,West,4.6,-,N/A,,Clear,260,2012-11-14 20:55:00
2:15 PM,47.3,28.9,49,30.11,10.0,West,3.5,-,N/A,,Clear,260,2012-11-14 21:15:00
2:35 PM,45.9,30.0,54,30.11,10.0,West,3.5,-,N/A,,Clear,280,2012-11-14 21:35:00
2:55 PM,45.5,30.2,55,30.11,10.0,NNW,5.8,-,N/A,,Clear,330,2012-11-14 21:55:00
3:15 PM,45.0,30.9,58,30.11,10.0,North,8.1,-,N/A,,Clear,350,2012-11-14 22:15:00
3:35 PM,43.7,30.6,60,30.11,10.0,North,6.9,-,N/A,,Clear,350,2012-11-14 22:35:00
3:55 PM,41.9,29.7,62,30.10,10.0,North,9.2,-,N/A,,Clear,360,2012-11-14 22:55:00
4:15 PM,41.5,28.0,59,30.10,10.0,North,4.6,-,N/A,,Clear,10,2012-11-14 23:15:00
4:35 PM,38.7,26.4,61,30.10,10.0,NNW,6.9,-,N/A,,Clear,340,2012-11-14 23:35:00
4:55 PM,37.4,26.4,65,30.09,10.0,NW,3.5,-,N/A,,Scattered Clouds,310,2012-11-14 23:55:00
5:15 PM,37.8,27.1,66,30.10,10.0,North,8.1,-,N/A,,Scattered Clouds,350,2012-11-15 00:15:00
5:35 PM,37.6,27.7,67,30.11,10.0,North,9.2,-,N/A,,Scattered Clouds,350,2012-11-15 00:35:00
5:55 PM,38.8,27.9,65,30.11,10.0,Calm,Calm,-,N/A,,Mostly Cloudy,0,2012-11-15 00:55:00
6:15 PM,37.9,28.4,69,30.12,10.0,Calm,Calm,-,N/A,,Overcast,0,2012-11-15 01:15:00
6:35 PM,39.2,28.9,67,30.13,10.0,North,11.5,18.4,N/A,,Overcast,350,2012-11-15 01:35:00
6:55 PM,38.5,30.2,72,30.14,10.0,North,8.1,-,N/A,,Mostly Cloudy,10,2012-11-15 01:55:00
7:35 PM,37.6,31.1,77,30.14,10.0,North,6.9,-,N/A,,Overcast,10,2012-11-15 02:35:00
7:55 PM,39.2,31.5,74,30.14,10.0,NE,8.1,-,N/A,,Overcast,40,2012-11-15 02:55:00
8:15 PM,39.6,31.6,73,30.14,10.0,North,8.1,-,N/A,,Overcast,360,2012-11-15 03:15:00
8:35 PM,39.6,31.6,73,30.14,10.0,North,8.1,-,N/A,,Mostly Cloudy,360,2012-11-15 03:35:00
8:55 PM,38.5,30.9,74,30.15,10.0,NNE,5.8,-,N/A,,Scattered Clouds,30,2012-11-15 03:55:00
9:15 PM,36.0,29.7,78,30.15,10.0,Calm,Calm,-,N/A,,Scattered Clouds,0,2012-11-15 04:15:00
9:35 PM,35.2,30.7,84,30.16,10.0,Calm,Calm,-,N/A,,Scattered Clouds,0,2012-11-15 04:35:00
9:55 PM,32.9,29.3,87,30.17,10.0,West,4.6,-,N/A,,Scattered Clouds,280,2012-11-15 04:55:00
10:15 PM,33.8,29.8,85,30.16,10.0,WNW,5.8,-,N/A,,Mostly Cloudy,300,2012-11-15 05:15:00
10:35 PM,34.9,29.7,81,30.17,10.0,WSW,4.6,-,N/A,,Scattered Clouds,240,2012-11-15 05:35:00
10:55 PM,38.3,30.0,72,30.17,10.0,North,3.5,-,N/A,,Scattered Clouds,10,2012-11-15 05:55:00
11:15 PM,38.5,30.2,72,30.18,10.0,North,5.8,-,N/A,,Scattered Clouds,10,2012-11-15 06:15:00
11:35 PM,37.8,30.2,74,30.19,10.0,North,8.1,-,N/A,,Mostly Cloudy,360,2012-11-15 06:35:00
11:55 PM,38.3,30.9,75,30.20,10.0,NNE,6.9,-,N/A,,Overcast,30,2012-11-15 06:55:00